Location: Kailua
(21.4020°N, 157.7390°W)
Time: 00:20:12
(UTC-10:00)

Daily predictions for brighter satellites

Satellite Brightness Start Highest point End
(mag) Time Altitude Azimuth Time Altitude Azimuth Time Altitude Azimuth
ATLAS CENTAUR R/B 4.3 02:41:05 49° ESE 02:41:05 49° ESE 02:56:52 10° NE
Cosmos 2297 Rocket 4.2 02:38:39 10° NNE 02:43:03 23° ENE 02:43:09 23° ENE
Resurs 1-4 Rocket 3.9 02:48:11 10° NNE 02:50:38 27° NE 02:50:38 27° NE
ATLAS CENTAUR R/B 4.3 03:03:22 16° N 03:03:22 16° N 03:04:29 10° N
CZ-3 R/B 4.2 02:01:04 10° SW 03:04:38 79° SSE 03:16:29 10° ENE
ARIANE 5 R/B 4.3 03:04:00 10° N 03:06:08 25° N 03:06:08 25° N
Cosmos 2142 Rocket 4.4 03:36:39 79° ESE 03:36:47 80° E 03:42:55 10° N
Okean O Rocket 2.8 03:33:51 10° NNE 03:37:04 41° NE 03:37:04 41° NE
Delta 7925 Rocket 3.8 03:41:26 65° NNE 03:41:26 65° NNE 03:46:11 10° E
Cosmos 1697 Rocket 4.1 03:44:52 25° NW 03:44:52 25° NW 03:48:01 10° N
CZ-2D R/B 3.3 03:42:38 10° N 03:45:58 31° NW 03:45:58 31° NW
FUSE 4.0 03:48:08 71° NNE 03:48:08 71° NNE 03:53:20 10° E
USA 81 4.4 03:47:52 52° SE 03:48:43 59° E 03:53:54 10° NNE
Cosmos 1470 4.4 03:49:00 31° E 03:49:00 31° E 03:52:28 10° NNE
Cosmos 1980 Rocket 2.8 03:51:40 41° NW 03:51:40 41° NW 03:56:04 10° N
CZ-4B R/B 4.2 03:47:36 10° NNE 03:50:27 35° ENE 03:50:27 35° ENE
Cosmos-2242 4.5 03:53:36 29° NNW 03:53:36 29° NNW 03:55:48 10° N
Cosmos 2279 Rocket 4.4 03:49:38 35° SSE 03:52:11 61° E 03:58:20 10° NNE
Cosmos 371 Rocket 4.1 03:51:47 42° SE 03:52:26 45° ESE 03:57:00 10° NNE
SL-16 R/B 2.5 03:53:59 60° W 03:53:59 60° W 03:59:36 10° NNW
SWIFT 3.7 03:56:33 33° ESE 03:56:33 33° ESE 03:59:00 10° ESE
Mugunghwa Rocket 3.8 03:55:45 65° SSW 03:55:45 65° SSW 04:01:48 10° ESE
CZ-4B DEB 4.4 03:54:03 10° NNE 03:59:32 67° ESE 04:01:11 45° SSE
DELTA 2 R/B (1) 3.4 04:00:33 78° WSW 04:00:55 86° NW 04:06:32 10° NE
Cosmos 2322 Rocket 2.3 04:00:04 53° SSE 04:01:18 71° ESE 04:06:53 10° NNE
IRS-1C Rocket 4.0 03:57:45 10° N 04:02:58 68° WNW 04:03:04 68° W
GEOS 3 Rocket 3.8 03:59:56 10° SE 04:05:08 73° ENE 04:10:20 10° NNW
Cosmos 2227 Rocket 4.2 04:00:21 10° NW 04:01:21 15° NW 04:01:21 15° NW
Cosmos 990 Rocket 3.8 04:00:19 10° NNW 04:05:34 75° WSW 04:05:55 72° SW
ADEOS II 3.9 04:01:33 10° NE 04:05:56 27° E 04:10:17 10° SSE
Cosmos 783 Rocket 4.4 04:08:07 64° W 04:08:22 65° WNW 04:13:38 10° N
Cosmos 1842 Rocket 3.4 04:13:37 74° W 04:13:37 74° W 04:18:05 10° N
Delta 128 3.8 04:13:04 54° NW 04:13:40 59° NNW 04:18:28 10° ENE
Cosmos 1655 Rocket 4.2 04:10:39 10° N 04:17:02 72° E 04:23:22 10° S
GPS 2-12 Rocket1 3.1 04:17:35 57° S 04:17:35 57° S 04:22:00 10° E
Milstar 3 Cent rocket 3.5 04:14:31 21° WNW 04:18:07 49° N 04:27:28 10° E
Cosmos 1953 4.4 04:20:49 16° NW 04:20:49 16° NW 04:21:57 10° NNW
Okean-O 3.5 04:15:40 10° NNE 04:19:56 47° E 04:22:37 21° SSE
PSLV R/B 4.4 04:16:42 10° NNE 04:20:47 46° E 04:23:22 21° SSE
CZ-2C R/B 3.7 04:20:44 18° SSE 04:24:14 89° E 04:28:56 10° NNW
Cosmos 2297 Rocket 3.5 04:22:07 10° NW 04:24:49 23° WNW 04:24:49 23° WNW
Delta R/B 3.0 04:31:46 49° ENE 04:31:46 49° ENE 04:35:17 10° ESE
Cosmos 1437 2.8 04:28:45 10° NNW 04:31:45 64° NW 04:31:45 64° NW
Cosmos 1125 Rocket 3.7 04:27:25 10° N 04:32:36 72° ENE 04:37:45 10° SSE
Resurs 1-4 Rocket 4.2 04:30:54 10° NW 04:31:43 11° WNW 04:31:43 11° WNW
Aurora 2 Rocket 2.5 04:32:26 38° NNW 04:33:04 45° N 04:36:21 10° E
SL-16 R/B 2.3 04:31:14 37° SW 04:33:20 59° WNW 04:38:56 10° N
ARGOS Delta rocket 4.0 04:31:01 10° N 04:35:52 54° WNW 04:37:31 36° SW
SEDSat Delta rocket 3.9 04:36:22 34° SSW 04:36:31 34° SSW 04:41:24 10° SE
Cosmos 1733 3.3 04:40:43 45° WSW 04:41:24 52° W 04:45:06 10° N
Cosmos 2026 Rocket 4.1 04:43:05 10° NNW 04:49:09 52° W 04:55:08 10° SSW
Cosmos 2322 4.2 04:44:37 10° S 04:50:13 60° ESE 04:55:50 10° NNE
MOZ.5/SAFIR/RUBIN 5/SL-8 4.1 04:49:07 12° S 04:53:11 44° W 04:57:41 10° NNW
CCE 1 Rocket 3.8 04:53:22 27° WSW 04:54:56 38° SSW 04:58:32 10° SE
Thor Agena Rocket 3.4 04:50:23 10° S 04:55:24 66° WSW 05:00:24 10° NNW
USA 116 4.2 04:55:59 10° SSE 04:58:58 46° ENE 05:01:59 10° N
RESURS DK-1 3.8 04:56:43 10° N 05:00:37 41° ENE 05:04:31 10° SE
Meteor 1-16 Rocket 4.3 04:55:21 10° SSW 05:01:10 71° W 05:07:05 10° N
CZ-4B R/B 4.4 04:58:20 10° NNW 05:02:31 23° WNW 05:04:49 17° WSW
Cosmos 1680 Rocket 4.4 04:57:46 10° S 05:02:46 49° ESE 05:07:46 10° NNE
ASTRO E2 3.9 04:59:07 10° NW 05:02:58 42° NNE 05:06:50 10° E
OAO 3 Rocket 3.8 05:00:50 19° W 05:03:32 33° SW 05:07:43 10° SSE
Cosmos 304 Rocket 4.0 04:59:25 10° S 05:04:12 71° ESE 05:08:59 10° NNE
NOSS 3-4 (A) 4.3 05:00:38 10° NW 05:07:19 40° WSW 05:14:16 10° S
NOSS 3-4 (C) 4.3 05:00:44 10° NW 05:07:27 40° WSW 05:14:27 10° S
ISS -1.0 05:07:16 10° NNW 05:10:07 28° NE 05:12:58 10° ESE
Cosmos 1500 Rocket 4.4 05:07:46 10° NNW 05:11:29 28° W 05:15:11 10° SSW
Cosmos 1437 Rocket 4.5 05:09:20 10° SSE 05:12:45 33° E 05:16:11 10° NNE
Cosmos 2227 4.3 05:07:21 10° NNW 05:12:57 56° WSW 05:18:33 10° S
ADEOS Rocket 3.4 05:07:01 10° N 05:13:44 65° WNW 05:21:06 10° SSW
Elektron 1 4.0 05:12:36 17° SW 05:14:39 52° WNW 05:17:46 10° NNE
Cosmos 2151 3.0 05:13:20 10° NNW 05:17:34 59° W 05:21:47 10° S
BREEZE-M DEB (TANK) 2.7 05:16:52 17° W 05:17:56 23° SW 05:20:51 10° SSE
Meteor 2-20 4.4 05:12:52 10° NNW 05:18:53 66° W 05:24:55 10° S
Cosmos 923 Rocket 4.0 05:14:09 10° SSW 05:19:22 75° WNW 05:24:35 10° N
Meteor 2-1 Rocket 4.3 05:14:20 10° SSW 05:19:59 59° W 05:25:32 10° N
Cosmos 1674 4.0 05:24:20 10° NW 05:27:07 20° W 05:29:53 10° SW
Cosmos 2221 3.6 05:26:35 10° SW 05:30:04 25° W 05:33:35 10° NNW
NOAA 6 4.0 05:25:53 10° N 05:30:58 70° WNW 05:36:03 10° SSW
Meteor 1-11 4.2 05:26:15 10° N 05:31:53 84° W 05:37:35 10° S
SL-14 R/B 3.3 05:29:32 10° N 05:33:26 87° E 05:37:17 10° S
FUSE 4.1 05:29:07 10° W 05:34:20 54° SSW 05:39:32 10° ESE
Cosmos 2360 Rocket 2.6 05:29:53 10° SW 05:35:11 44° WNW 05:40:32 10° N
Cosmos 1633 Rocket 3.8 05:31:53 10° N 05:36:13 59° E 05:40:33 10° SSE
Delta 7925 Rocket 3.6 05:31:22 10° W 05:36:18 47° SSW 05:40:45 10° SE
SWIFT 3.0 05:32:46 10° W 05:36:41 38° SSW 05:40:37 10° SE
XTE 3.3 05:34:10 10° W 05:37:09 48° SSW 05:40:08 10° ESE
Delta 2 Rocket 3.7 05:35:03 10° WSW 05:38:44 52° NNW 05:42:54 10° NE
CZ-3A R/B 4.1 05:35:27 10° SW 05:41:31 63° NW 06:22:25 10° NE
